Regional Weather Roundup
Issued by NWS

Home | Current Version | Previous Version | Graphics & Text | Print | Product List | Glossary On
Versions: 1 2 3 4 5 6 7 8 9 10 11 12 13 14 15 16 17 18 19 20 21 22 23 24 25 26 27 28 29 30 31 32 33 34 35 36 37 38 39 40 41 42 43 44 45 46 47 48 49 50
718
ASUS43 KTOP 121759
RWRKS

WEATHER ROUNDUP FOR KANSAS
NATIONAL WEATHER SERVICE GOODLAND KS
1200 PM CST TUE DEC 12 2017

NOTE:  "FAIR" INDICATES FEW OR NO CLOUDS BELOW 12,000 FEET WITH NO
SIGNIFICANT WEATHER AND/OR OBSTRUCTIONS TO VISIBILITY.

KSZ001>006-013>018-027>032-041>047-121900-
NORTHWEST KANSAS

CITY           SKY/WX    TMP DP  RH WIND       PRES   REMARKS
GOODLAND       SUNNY     59  16  18 NW14      30.25F
6HR MIN TEMP:  21; 6HR MAX TEMP:  59;

HAYS           SUNNY     47  26  44 W13       30.28F
HILL CITY      SUNNY     49  21  33 SW7       30.26F
6HR MIN TEMP:  22; 6HR MAX TEMP:  50;

RUSSELL        SUNNY     45  28  51 SW12      30.27F
6HR MIN TEMP:  17; 6HR MAX TEMP:  45;

$$

KSZ061>065-074>080-084>089-121900-
SOUTHWEST KANSAS

CITY           SKY/WX    TMP DP  RH WIND       PRES   REMARKS
DODGE CITY     SUNNY     50  17  27 W9        30.32F
6HR MIN TEMP:  18; 6HR MAX TEMP:  50;

GARDEN CITY    SUNNY     50  13  22 W12       30.31F
6HR MIN TEMP:  15; 6HR MAX TEMP:  50;

GREAT BEND     SUNNY     47  27  45 W12       30.31F
LIBERAL        SUNNY     53  13  20 W10       30.35F
$$

KSZ066>073-081>083-090>101-121900-
SOUTHEAST KANSAS

CITY           SKY/WX    TMP DP  RH WIND       PRES   REMARKS
CHANUTE        SUNNY     39  14  36 NW9       30.35F
6HR MIN TEMP:  25; 6HR MAX TEMP:  39;

COFFEYVILLE    SUNNY     41  12  30 NW7       30.38F
6HR MIN TEMP:  27; 6HR MAX TEMP:  42;

HUTCHINSON     SUNNY     44  30  57 W12       30.33F
6HR MIN TEMP:  20; 6HR MAX TEMP:  44;

MEDICINE LODGE   N/A     48  28  46 W8        30.35F
NEWTON         SUNNY     43  28  55 W7        30.33F
PARSONS        SUNNY     40  15  36 MISG      30.37F
6HR MIN TEMP:  25; 6HR MAX TEMP:  41;

WICHITA INTL   SUNNY     44  29  55 W7        30.35F
6HR MIN TEMP:  26; 6HR MAX TEMP:  44;

WICHITA JABRA  SUNNY     42  28  57 W5        30.34F
6HR MIN TEMP:  26; 6HR MAX TEMP:  42;

WICHITA MCCONL SUNNY     42  26  52 W7        30.34F
WINFIELD       SUNNY     44  27  51 NW9       30.38F
6HR MIN TEMP:  21; 6HR MAX TEMP:  44;

$$

KSZ007>012-019>026-033>040-048>060-102>105-121900-
NORTHEAST KANSAS

CITY           SKY/WX    TMP DP  RH WIND       PRES   REMARKS
CONCORDIA      SUNNY     43  28  55 SW10      30.28F
6HR MIN TEMP:  25; 6HR MAX TEMP:  43;

EMPORIA        PTSUNNY   41  24  51 NW12      30.32F
6HR MIN TEMP:  22; 6HR MAX TEMP:  42;

LAWRENCE       SUNNY     35  11  36 W10       30.33F WCI  27
6HR MIN TEMP:  16; 6HR MAX TEMP:  35;

MANHATTAN      CLOUDY    40  26  57 SW9       30.32F
6HR MIN TEMP:  21; 6HR MAX TEMP:  40;

OLATHE IND     SUNNY     33   9  36 W10       30.32F WCI  25
6HR MIN TEMP:  20; 6HR MAX TEMP:  33;

OLATHE EXE     SUNNY     32  10  40 W10       30.31F WCI  24
6HR MIN TEMP:  21; 6HR MAX TEMP:  33;

SALINA         SUNNY     46  30  53 W12       30.31F
6HR MIN TEMP:  25; 6HR MAX TEMP:  47;

TOPEKA BILLARD SUNNY     37  20  50 W8        30.32F
6HR MIN TEMP:  21; 6HR MAX TEMP:  37;

TOPEKA FORBES  SUNNY     38  20  48 NW8       30.31F
6HR MIN TEMP:  17; 6HR MAX TEMP:  38;

$$




USA.gov is the U.S. government's official web portal to all federal, state and local government web resources and services.